[[{"header":{"parameterUnit":"m.s-1","parameterCategory":1,"la1":30.2991,"la2":30.254,"lo1":-89.0895,"lo2":-89.0444,"dy":0.0017,"dx":0.0017,"nx":28,"ny":28,"refTime":"2026-01-29T03:00:00:Z","depth":0,"parameterNumber":2,"parameterNumberName":"U-component_of_WINDS"},"data":[0,0,0,0,0,0,0,0,0,0,0,0,0,0,0,0,0,0,0,0,0,0,0,0,0,0,0,0,0,0,0,0,0,0,0,0,0,0,0,0,0,0,0,0,0,0,0,0,0,0,0,0,0,0,0,0,0,0,2.811,2.8112,0,2.8312,2.8314,2.8316,2.8314,2.8311,2.8309,2.8306,2.8515,2.8522,2.853,0,0,0,0,0,0,0,0,0,0,0,0,0,2.7723,2.773,2.811,2.8113,2.8115,2.8311,2.8314,2.8317,2.8314,2.8311,2.8308,2.8305,2.8512,2.8521,2.8531,0,0,0,0,0,0,0,0,0,0,0,0,0,2.7905,2.7733,2.811,2.8137,2.8142,2.8311,2.8314,2.8318,2.8315,2.8311,2.8307,2.8303,2.8509,2.852,2.8532,2.8688,0,0,2.8569,2.8575,0,0,0,0,0,0,0,0,2.7895,2.7919,2.8131,2.8136,2.8141,2.8284,2.8254,2.8442,2.8316,2.8249,2.8306,2.8301,2.8441,2.8458,2.8505,2.8697,2.8706,2.857,2.8578,2.8583,2.8586,0,0,0,0,0,0,0,2.7882,2.791,2.819,2.8134,2.814,2.814,2.8161,2.829,2.8365,2.8255,2.8255,2.8279,2.8443,2.8494,2.851,2.871,2.857,2.8581,2.8588,2.8593,2.9037,2.9041,0,0,0,0,0,0,2.7863,2.79,2.8183,2.8196,2.8005,2.815,2.8174,2.8242,2.8364,2.8379,2.8282,2.8278,2.8475,2.8496,2.8517,2.8705,2.8583,2.8594,2.8601,2.9032,2.9038,2.9043,0,0,0,0,0,0,2.7855,2.7889,2.8175,2.8048,2.8085,2.8161,2.8237,2.8248,2.8298,2.8385,2.8398,2.832,2.8473,2.85,2.8645,2.8712,2.86,2.8611,2.9027,2.9034,2.904,2.9083,0,0,0,0,0,0,2.7844,2.7886,2.7945,2.8049,2.8091,2.8299,2.8242,2.8255,2.8319,2.8316,2.8423,2.8438,2.8472,2.8627,2.8657,2.8727,2.862,2.9021,2.903,2.9038,2.9076,2.909,2.9103,0,0,0,0,0,2.783,2.795,2.7948,2.7983,2.8167,2.8303,2.8327,2.8363,2.8325,2.8385,2.844,2.8434,2.8701,2.8641,2.8675,2.875,2.9017,2.9028,2.9038,2.907,2.9087,2.9102,0,0,0,0,0,0,2.7853,2.7964,2.7964,2.8121,2.8202,2.8302,2.838,2.8381,2.8476,2.8469,2.851,2.8535,2.8678,2.8729,2.8661,2.8906,2.8854,2.8871,2.8867,2.8884,2.8898,2.8881,2.863,0,0,0,0,0,2.7877,2.7977,2.8069,2.8199,2.824,2.8303,2.8363,2.8384,2.847,2.8505,2.8571,2.8655,2.8757,2.8824,2.8924,2.9084,2.9106,2.9152,2.9165,2.9176,2.919,2.9276,2.9297,2.9076,2.9076,2.9076,0,0,2.7926,2.7999,2.806,2.8205,2.8271,2.8373,2.8332,2.8443,2.8519,2.8522,2.8661,2.8713,2.8809,2.8961,2.9032,2.9008,2.9256,2.9189,2.9197,2.9205,2.9289,2.9309,2.9328,2.9083,2.9082,2.9081,0,0,2.8067,2.8134,2.8248,2.8314,2.8413,2.8454,2.8482,2.8582,2.8615,2.8756,2.8759,2.8851,2.9028,2.9095,2.9153,2.9319,2.9317,2.9351,2.9421,2.9504,2.9521,2.9537,2.9594,2.9614,2.9365,2.9365,2.9365,0,2.8116,2.8271,2.8307,2.8417,2.848,2.8487,2.8602,2.8665,2.8792,2.8835,2.8807,2.9027,2.9093,2.926,2.93,2.9348,2.9379,2.9338,2.9516,2.9532,2.9547,2.9602,2.9623,2.9368,2.9368,2.9368,2.9367,0,2.8324,2.8431,2.8512,2.8632,2.8705,2.8818,2.8871,2.894,2.8954,2.8998,2.914,2.9219,2.9333,2.9375,2.9391,2.9544,2.9526,2.9507,2.9455,2.9571,2.9622,2.9644,2.9373,2.9372,2.9371,2.937,0,0,2.8485,2.8624,2.8652,2.8706,2.8816,2.8899,2.9012,2.9123,2.918,2.9268,2.9362,2.9511,2.9493,2.9559,2.9582,2.9656,2.9779,2.9627,2.963,2.9651,2.995,2.9962,2.9986,2.9779,2.9783,2.9787,2.9941,0,2.8636,2.8835,2.887,2.9044,2.9142,2.915,2.9248,2.9325,2.9369,2.9459,2.9509,2.9612,2.9582,2.9621,2.9694,2.9749,2.984,2.9739,2.9866,2.987,2.9839,3.0014,3.0027,3.0169,2.9962,2.9966,2.9968,0,2.8839,2.893,2.9113,2.9207,2.925,2.9337,2.944,2.9527,2.9615,2.9641,2.9714,2.9729,2.9846,2.979,2.9951,2.9881,2.9936,2.9971,2.9977,2.9988,2.9924,3.0027,3.0216,3.0236,3.0001,2.9998,2.9996,0,2.8934,2.9103,2.9233,2.928,2.9394,2.9455,2.9505,2.959,2.9653,2.9744,2.9786,2.989,2.9946,3.0026,3.0068,3.0024,3.0225,3.0174,3.025,3.0249,3.029,3.0286,3.0487,3.0329,3.0329,3.0329,3.0328,0,2.9098,2.9209,2.9277,2.9357,2.9482,2.9522,2.9644,2.9693,2.9768,2.9858,2.9872,2.9955,3.0007,3.0099,3.0133,3.026,3.0286,3.031,3.0317,3.0308,3.0304,3.0342,3.0333,3.0334,3.0333,3.0332,3.0331,0,2.9225,2.9276,2.9418,2.9514,2.9541,2.9628,2.971,2.9788,2.9831,2.9945,2.9974,3.0042,3.0151,3.0201,3.0336,3.0359,3.0502,3.0504,3.0471,3.0473,3.0545,3.0537,3.0776,3.0808,3.0631,3.0633,3.0634,0,2.9324,2.941,2.9514,2.9575,2.9626,2.9724,2.9789,2.9832,2.9898,3.0004,3.0069,3.0178,3.0266,3.0439,3.0501,3.0603,3.0606,3.0683,3.0622,3.0608,3.0605,3.0598,3.0606,3.0693,3.0695,3.0696,3.0698,0,2.9495,2.9516,2.9608,2.9709,2.9785,2.9867,2.9947,2.9996,3.0051,3.0126,3.0235,3.0304,3.0441,3.0547,3.0654,3.0706,3.0711,3.0717,3.0739,3.0729,3.0705,3.0716,3.0499,3.071,3.0709,3.0708,3.0708,3.0707,2.961,2.9685,2.977,2.9872,2.9936,3.0011,3.0088,3.014,3.0233,3.0346,3.0366,3.0482,3.0568,3.0711,3.0767,3.0858,3.0841,3.0874,3.0882,3.0889,3.0891,3.0692,3.0878,3.0878,3.0878,3.0878,3.0877,0,2.9779,2.9834,2.9927,3.0038,3.0118,3.0115,3.0203,3.027,3.0372,3.0451,3.0537,3.0663,3.0767,3.0836,3.0941,3.1001,3.1006,3.1027,3.1022,3.1033,3.0903,3.0871,3.1021,3.1021,3.1021,3.1021,3.1021,3.1021,2.9876,3.0002,3.0033,3.0191,3.0245,3.0358,3.0409,3.0477,3.054,3.0679,3.0764,3.0809,3.0884,3.0994,3.1089,3.1107,3.1144,3.1165,3.1182,3.1058,3.1043,3.1029,3.0999,3.1174,3.1174,3.1305,3.1306,3.1307]},{"header":{"parameterUnit":"m.s-1","parameterCategory":1,"la1":30.2991,"la2":30.254,"lo1":-89.0895,"lo2":-89.0444,"dy":0.0017,"dx":0.0017,"nx":28,"ny":28,"refTime":"2026-01-29T03:00:00:Z","depth":0,"parameterNumber":3,"parameterNumberName":"V-component_of_WINDS"},"data":[0,0,0,0,0,0,0,0,0,0,0,0,0,0,0,0,0,0,0,0,0,0,0,0,0,0,0,0,0,0,0,0,0,0,0,0,0,0,0,0,0,0,0,0,0,0,0,0,0,0,0,0,0,0,0,0,0,0,1.4295,1.4296,0,1.4385,1.4386,1.4387,1.4369,1.4367,1.4366,1.4364,1.4452,1.4456,1.446,0,0,0,0,0,0,0,0,0,0,0,0,0,1.4104,1.4107,1.4295,1.4296,1.4297,1.4384,1.4386,1.4387,1.4369,1.4367,1.4365,1.4364,1.4451,1.4456,1.446,0,0,0,0,0,0,0,0,0,0,0,0,0,1.4189,1.4108,1.4295,1.4299,1.43,1.4384,1.4386,1.4387,1.437,1.4367,1.4365,1.4363,1.445,1.4455,1.4461,1.4545,0,0,1.4479,1.4481,0,0,0,0,0,0,0,0,1.4184,1.4196,1.4297,1.4299,1.4301,1.4363,1.435,1.444,1.437,1.4343,1.4364,1.4361,1.4424,1.4432,1.4454,1.4549,1.4553,1.4479,1.4483,1.4485,1.4487,0,0,0,0,0,0,0,1.4178,1.4192,1.433,1.4299,1.4301,1.4295,1.4304,1.4367,1.4396,1.4345,1.4344,1.4355,1.4425,1.4449,1.4456,1.4554,1.4479,1.4484,1.4488,1.449,1.472,1.4722,0,0,0,0,0,0,1.4172,1.4187,1.4328,1.4333,1.4235,1.43,1.4311,1.4346,1.4396,1.4401,1.4357,1.4354,1.444,1.4449,1.4459,1.456,1.4485,1.449,1.4494,1.4717,1.472,1.4723,0,0,0,0,0,0,1.4168,1.4184,1.4324,1.426,1.4277,1.4306,1.4345,1.4349,1.4372,1.4405,1.4409,1.4377,1.4438,1.4451,1.4523,1.4562,1.4493,1.4498,1.4714,1.4718,1.4722,1.4762,0,0,0,0,0,0,1.4162,1.4183,1.4217,1.4261,1.4281,1.4389,1.4348,1.4352,1.4383,1.438,1.4424,1.4429,1.4438,1.4515,1.4529,1.4569,1.4503,1.4711,1.4716,1.4721,1.4757,1.4767,1.4775,0,0,0,0,0,1.4156,1.4224,1.4219,1.4236,1.4324,1.4391,1.4402,1.4412,1.4386,1.4419,1.4439,1.4428,1.4556,1.4523,1.4538,1.4581,1.4708,1.4714,1.472,1.4753,1.4765,1.4775,0,0,0,0,0,0,1.4183,1.423,1.4225,1.431,1.4347,1.4388,1.443,1.4424,1.4468,1.4463,1.4471,1.4481,1.4555,1.4575,1.4537,1.4663,1.4628,1.4638,1.4648,1.4659,1.4668,1.4662,1.4508,0,0,0,0,0,1.42,1.4252,1.4289,1.4361,1.438,1.4402,1.4431,1.4435,1.4473,1.4488,1.4514,1.455,1.4598,1.4629,1.4676,1.476,1.4768,1.4796,1.4805,1.4812,1.482,1.4864,1.4877,1.4743,1.4743,1.4743,0,0,1.4234,1.4265,1.4298,1.4367,1.4396,1.4448,1.4415,1.4472,1.451,1.4496,1.4567,1.4586,1.4627,1.4705,1.4741,1.4724,1.4859,1.482,1.4825,1.483,1.4871,1.4884,1.4895,1.4747,1.4746,1.4745,0,0,1.4322,1.4352,1.4414,1.4444,1.4488,1.4502,1.4516,1.4558,1.4571,1.4642,1.4632,1.4676,1.476,1.4788,1.4814,1.491,1.49,1.4925,1.4971,1.5014,1.5024,1.5033,1.5067,1.5079,1.4932,1.4933,1.4933,0,1.4358,1.4438,1.4447,1.4505,1.4534,1.4525,1.4586,1.4614,1.4671,1.4691,1.4671,1.4774,1.4801,1.4884,1.4908,1.4929,1.4944,1.492,1.5022,1.5032,1.504,1.5072,1.5085,1.4935,1.4935,1.4935,1.4934,0,1.448,1.4535,1.4579,1.4635,1.4669,1.4729,1.4745,1.4778,1.4778,1.4794,1.4864,1.4895,1.4947,1.4967,1.4967,1.505,1.5038,1.502,1.4985,1.5056,1.5086,1.5098,1.4939,1.4938,1.4937,1.4937,0,0,1.459,1.4648,1.4665,1.4689,1.4736,1.4778,1.4835,1.4886,1.4914,1.4952,1.5,1.5069,1.5052,1.5081,1.5084,1.5122,1.5194,1.5099,1.51,1.5115,1.5285,1.5298,1.5312,1.5187,1.519,1.5192,1.5282,0,1.4682,1.4786,1.4795,1.4887,1.4937,1.4927,1.4976,1.5009,1.5024,1.5067,1.5082,1.5131,1.5106,1.5123,1.516,1.5178,1.5228,1.5171,1.523,1.5232,1.5221,1.5328,1.5343,1.5426,1.5293,1.5295,1.5297,0,1.4805,1.4847,1.4945,1.4983,1.5004,1.5049,1.5095,1.5137,1.5173,1.518,1.5212,1.5209,1.5266,1.5228,1.5305,1.5266,1.529,1.5302,1.5305,1.5311,1.5269,1.5337,1.5453,1.5466,1.5315,1.5314,1.5313,0,1.4875,1.4956,1.5025,1.5046,1.5092,1.5123,1.5144,1.5177,1.5207,1.5246,1.5265,1.531,1.5335,1.5369,1.5378,1.5349,1.5454,1.5417,1.5461,1.5461,1.5484,1.5482,1.5606,1.55,1.5499,1.5499,1.5499,0,1.4977,1.5037,1.5057,1.5099,1.5165,1.5172,1.5236,1.5255,1.5284,1.5328,1.5321,1.5362,1.5371,1.5413,1.542,1.5482,1.5493,1.55,1.5501,1.55,1.55,1.5517,1.5511,1.5502,1.5502,1.5501,1.5501,0,1.5067,1.5083,1.5157,1.5194,1.5204,1.5251,1.5282,1.5321,1.5334,1.539,1.5403,1.5423,1.5472,1.5484,1.5542,1.5546,1.5619,1.5614,1.5607,1.5607,1.565,1.5645,1.5788,1.5807,1.5689,1.569,1.5691,0,1.5132,1.5178,1.5219,1.5249,1.5271,1.5318,1.5348,1.5356,1.5387,1.543,1.5463,1.5511,1.5551,1.5628,1.5647,1.5691,1.5687,1.5734,1.5693,1.5691,1.5687,1.5684,1.5688,1.5742,1.5743,1.5744,1.5745,0,1.5244,1.5249,1.5293,1.534,1.5375,1.5412,1.5447,1.5471,1.5483,1.5517,1.5568,1.5598,1.5657,1.5704,1.5747,1.5766,1.5757,1.5757,1.577,1.577,1.5764,1.5767,1.5628,1.5754,1.5753,1.5753,1.5752,1.5752,1.5323,1.5363,1.5398,1.5447,1.5473,1.5506,1.5544,1.5561,1.5604,1.5653,1.5654,1.5709,1.574,1.5798,1.5819,1.586,1.5845,1.5863,1.5868,1.5872,1.5875,1.5757,1.5868,1.5867,1.5867,1.5867,1.5867,0,1.5435,1.5457,1.5501,1.555,1.5587,1.5576,1.5613,1.5645,1.5693,1.5724,1.5762,1.5819,1.5864,1.5885,1.5929,1.5957,1.5954,1.5969,1.5967,1.5971,1.5886,1.5871,1.597,1.597,1.597,1.597,1.597,1.597,1.5497,1.5563,1.5572,1.565,1.5671,1.5725,1.5747,1.5775,1.58,1.5863,1.5901,1.5915,1.5941,1.5986,1.6026,1.6031,1.6047,1.6064,1.6066,1.5987,1.5977,1.5967,1.5953,1.6067,1.6067,1.6147,1.6148,1.6148]}]]